This is the latest recevied weather packets stored in our database for station/object K5BOU. If no packets are shown the sender has not sent any weather packets the latest 1 day(s).
| Time | Temp. | Humidity | Pressure | Rain* | Wind** | Luminosity | Snow |
|---|---|---|---|---|---|---|---|
| 1778014111 | 27.78° C | 86% | 1005.8 hPa | 0 mm | - | 207 W/m² | - |
| 1778013809 | 27.78° C | 87% | 1006 hPa | 0 mm | - | 259 W/m² | - |
| 1778013506 | 27.78° C | 87% | 1005.9 hPa | 0 mm | - | 161 W/m² | - |
| 1778012595 | 27.78° C | 87% | 1006.2 hPa | 0 mm | - | 183 W/m² | - |
| 1778011079 | 28.33° C | 85% | 1006.4 hPa | 0 mm | - | 275 W/m² | - |
| 1778010474 | 28.33° C | 86% | 1006.4 hPa | 0 mm | - | 423 W/m² | - |
| 1778009866 | 27.78° C | 86% | 1006.5 hPa | 0 mm | - | 476 W/m² | - |
| 1778008356 | 27.78° C | 88% | 1006.5 hPa | 0 mm | - | 336 W/m² | - |
| 1778007145 | 27.22° C | 88% | 1006.8 hPa | 0 mm | - | 253 W/m² | - |
| 1778005933 | 27.22° C | 88% | 1006.8 hPa | 0 mm | - | 292 W/m² | - |
| 1778005326 | 26.67° C | 90% | 1006.8 hPa | 0 mm | - | 253 W/m² | - |
| 1778001990 | 26.67° C | 91% | 1007.3 hPa | 0 mm | - | 244 W/m² | - |
| 1778001381 | 26.11° C | 91% | 1007.2 hPa | 0 mm | - | 175 W/m² | - |
| 1777999863 | 26.11° C | 91% | 1007.7 hPa | 0 mm | - | 99 W/m² | - |
| 1777998955 | 26.67° C | 91% | 1007.3 hPa | 0 mm | - | 171 W/m² | - |
| 1777997744 | 26.11° C | 93% | 1007.4 hPa | 0 mm | - | 200 W/m² | - |
| 1777994408 | 25° C | 95% | 1007.1 hPa | 0 mm | - | 231 W/m² | - |
| 1777993197 | 25° C | 96% | 1007.1 hPa | 0 mm | - | 150 W/m² | - |
| 1777992895 | 24.44° C | 97% | 1006.9 hPa | 0 mm | - | 121 W/m² | - |
| 1777992593 | 24.44° C | 97% | 1007.1 hPa | 0 mm | - | 94 W/m² | - |
* Rain latest hour (hover to see other rain measurements)
** Current wind speed in m/s (hover to see current wind gust speed)